Regional Weather Roundup
Issued by NWS

Home | Current Version | Previous Version | Text Only | Print | Product List | Glossary Off
Versions: 1 2 3 4 5 6 7 8 9 10 11 12 13 14 15 16 17 18 19 20 21 22 23 24 25 26 27 28 29 30 31 32 33 34 35 36 37 38 39 40 41 42 43 44 45 46 47 48 49 50

214
ASUS45 KSLC 191610
RWRUT

UTAH REGIONAL WEATHER ROUNDUP
NATIONAL WEATHER SERVICE SALT LAKE CITY UT
1000 AM MDT TUE SEP 19 2017

UTZ001>011-023>025-191700-

NORTHERN UTAH

CITY           SKY/WX    TMP DP  RH WIND       PRES   REMARKS
BRIGHAM CITY   CLOUDY    49  36  59 N9        29.92R
DUGWAY         MOSUNNY   53  37  54 NE17G25   29.87R
HILL AFB       CLOUDY    47  37  67 CALM      29.91R
LOGAN          LGT RAIN  46  41  82 SE5       29.92R
OGDEN          CLOUDY    50  38  63 CALM      29.90S
SALT LAKE CITY CLOUDY    51  43  74 NW7       29.92R
TOOELE VALLEY  CLOUDY    50  45  81 CALM      29.94R
WENDOVER       PTSUNNY   56  36  47 S8        29.90R
HEBER CITY     LGT RAIN  54  39  58 CALM      29.85R
WEST JORDAN    CLOUDY    46  46 100 NW7       29.94S

$$

UTZ011>015-024>027-191700-

CENTRAL/NORTHEAST UTAH

CITY           SKY/WX    TMP DP  RH WIND       PRES   REMARKS
PROVO AIRPORT  CLOUDY    52  41  66 NW18G31   29.90R
MOAB/CANYONLAN SUNNY     74  28  18 SW21G31   29.80F
DELTA          SUNNY     63  39  42 NW12      29.86R
PRICE          PTSUNNY   64  35  34 S3        29.84R
ROOSEVELT      PTSUNNY   72  32  23 SW21G26   29.77S
VERNAL         CLOUDY    70  35  27 SW14      29.76R

$$

UTZ013>016-019>022-027-191700-

SOUTHERN UTAH

CITY           SKY/WX    TMP DP  RH WIND       PRES   REMARKS
BRYCE CANYON   MOSUNNY   58  37  45 SW17G26   30.06R
CEDAR CITY     PTSUNNY   66  39  37 SW21G31   29.93R
MILFORD        PTSUNNY   66  41  40 S25G31    29.89R
ST GEORGE      CLOUDY    78  43  28 S12       29.85R
HANKSVILLE     MOSUNNY   73  32  21 SW17G35   29.85S
BLANDING         N/A     61  24  23 S8        30.10S

$$

REGIONAL REPORTS     COLORADO/ARIZONA

CITY           SKY/WX    TMP DP  RH WIND       PRES   REMARKS
CRAIG, CO      SUNNY     67  19  16 SW30G44   29.80F
GRAND JUNCTION SUNNY     72  24  16 SE13      29.84F
RIFLE, CO      SUNNY     70  21  15 W9        29.86F
MONTROSE, CO   CLOUDY    68  20  16 MISG      29.97F
CORTEZ, CO     CLOUDY    66  27  23 SW16      30.06R
PAGE, AZ       PTSUNNY   68  38  33 NW3       29.93R
GRAND CANYON   MOSUNNY   60  28  29 SW23G30   30.11R
KINGMAN, AZ    MOSUNNY   76  46  34 S20G29    29.94R
FLAGSTAFF, AZ  SUNNY     57  31  37 SW21G30   30.15R

$$

REGIONAL REPORTS    NEVADA/IDAHO/WYOMING

CITY           SKY/WX    TMP DP  RH WIND       PRES   REMARKS
LAS VEGAS, NV  MOSUNNY   77  42  28 S16G26    29.79R
ELY, NY        MOSUNNY   58  35  42 VRB5      29.95R
ELKO, NV       CLOUDY    51  31  46 W14       29.95R
POCATELLO, ID  MOSUNNY   48  40  73 SW21      29.88R
BURLEY, ID     MOSUNNY   49  37  63 W10       29.88R
FORT BRIDGER,  LGT SNOW  35  35 100 NW13G18   29.96R WCI  26
EVANSTON, WY   LGT SNOW  35  34  96 NW10      29.93R FOG     WCI  27
ROCK SPRINGS,  RAIN      38  36  92 W17       29.88R FOG     WCI  28
KEMMERER, WY   LGT SNOW  34  32  93 NW24      29.89R WCI  21

$$




USA.gov is the U.S. government's official web portal to all federal, state and local government web resources and services.